Dewpoint
-6 -6 -6 -6 -6 -6 -6 -6 -6 -7 -7 -8 -8 -8 -7 -7 -5 6 13 14 13 13 13 12 12 12 12 12 12 12 12 10
-5 -6 -6 -6 -6 -6 -6 -6 -5 -5 -5 -6 -6 -7 -8 -7 -7 -7 7 13 13 13 13 12 11 12 12 12 12 12 13 12
-5 -5 -5 -5 -5 -5 -5 -5 -5 -4 -3 -2 -1 -1 -4 -6 -7 -8 -6 8 11 11 12 13 12 11 13 13 13 12 13 12
-5 -5 -5 -5 -5 -5 -5 -5 -4 -4 -3 -1 0 0 0 -2 -3 -6 -9 -9 5 11 13 13 13 12 11 13 13 12 13 13
-5 -5 -5 -6 -6 -6 -5 -4 -4 -3 -2 -1 -0 1 1 2 1 -2 -7 -10 -7 -2 12 12 13 13 12 11 13 12 12 12
-4 -5 -6 -6 -6 -5 -5 -4 -3 -2 -2 -1 -0 1 1 2 2 2 -2 -10 -11 -1 6 12 12 13 12 12 13 13 12 12
-5 -6 -6 -5 -6 -5 -5 -4 -3 -3 -2 -1 -0 1 1 2 2 3 1 -4 -3 -3 1 7 12 11 13 12 12 13 12 13
-5 -6 -6 -5 -5 -5 -5 -4 -4 -3 -2 -2 -0 -0 1 2 4 3 5 7 9 8 -0 8 10 9 11 13 13 13 13 12
-5 -5 -6 -5 -5 -5 -5 -4 -4 -3 -3 -2 -2 -1 -0 2 3 5 6 8 8 8 6 9 9 9 9 12 13 12 14 13
-5 -5 -6 -6 -5 -5 -5 -5 -4 -3 -3 -3 -3 -2 -0 1 2 3 6 6 8 7 7 8 9 7 6 7 12 12 12 12
-5 -5 -5 -5 -5 -5 -5 -4 -5 -4 -4 -4 -4 -3 -2 -0 -0 0 3 6 7 9 9 8 8 7 7 9 10 9 11 11
-5 -6 -5 -5 -5 -5 -5 -5 -5 -5 -4 -5 -5 -5 -4 -3 -3 -2 -1 3 7 8 8 9 7 8 8 9 8 8 7 5
-5 -7 -8 -7 -6 -5 -5 -5 -5 -4 -5 -4 -4 -6 -5 -6 -6 -5 -2 2 7 7 6 8 8 7 8 8 8 8 9 9
-7 -8 -10 -11 -10 -8 -5 -5 -4 -4 -3 -4 -3 -5 -6 -6 -7 -7 -2 0 3 5 4 6 6 5 6 6 5 3 6 6
-8 -9 -13 -13 -15 -14 -12 -7 -5 -4 -4 -5 -6 -5 -5 -6 -5 -4 -3 -0 1 1 2 2 2 3 4 3 3 2 2 3
-9 -9 -10 -14 -16 -16 -19 -19 -17 -12 -10 -9 -7 -6 -9 -10 -10 -11 -8 -7 -5 -5 -4 -2 -2 -2 -2 -2 0 0 -0 -1
-9 -10 -10 -13 -14 -16 -16 -19 -21 -20 -17 -18 -14 -16 -17 -19 -22 -21 -21 -20 -17 -14 -12 -11 -11 -11 -11 -10 -10 -9 -9 -9
-11 -10 -10 -12 -13 -13 -16 -15 -17 -22 -25 -23 -22 -25 -23 -22 -25 -28 -29 -28 -27 -28 -30 -30 -27 -24 -24 -25 -24 -23 -22 -21
-12 -12 -12 -12 -13 -14 -14 -16 -14 -17 -21 -26 -29 -29 -29 -30 -30 -30 -30 -31 -33 -33 -33 -34 -34 -35 -35 -32 -32 -31 -29 -27
Wind_Speed
29 30 31 34 36 38 38 37 40 39 41 46 45 48 43 40 38 33 35 36 48 43 38 39 41 40 38 36 35 31 31 29
27 30 32 34 36 40 42 39 34 35 34 37 43 44 48 44 42 40 35 33 43 35 42 41 40 43 42 40 37 35 35 32
33 34 37 40 42 43 42 39 35 32 31 30 33 39 42 46 45 44 42 38 30 43 48 51 42 43 44 43 41 39 39 35
35 38 40 41 42 43 41 39 35 34 30 31 29 34 40 41 42 46 43 46 36 36 43 40 49 45 50 47 44 43 44 40
31 35 37 37 38 37 36 36 34 32 28 29 29 33 39 39 39 41 45 45 42 37 35 47 49 54 55 52 50 47 45 43
30 32 32 33 36 35 34 34 33 30 27 25 28 33 35 35 34 38 38 39 42 42 38 37 49 53 58 59 54 50 51 47
24 27 30 34 33 31 31 32 34 31 29 24 22 28 31 31 28 31 31 29 31 31 40 30 37 64 58 65 59 52 51 49
25 29 33 33 32 31 30 31 33 30 26 22 19 21 27 28 22 25 20 19 25 29 37 20 31 25 46 62 60 51 50 48
23 27 30 29 30 29 28 29 33 30 24 19 17 15 17 19 15 21 16 15 16 14 24 22 26 15 6 35 43 45 47 45
23 24 26 28 28 29 28 29 30 29 28 28 24 15 8 7 9 8 13 21 18 16 10 17 15 7 14 24 26 33 31 36
20 23 26 27 26 28 27 27 30 32 26 30 32 22 16 10 7 12 15 15 17 15 9 8 11 12 23 19 13 4 17 18
18 21 25 25 25 27 29 29 31 32 29 29 36 31 26 26 23 23 30 32 30 22 19 15 8 5 8 9 16 15 9 11
14 20 26 26 25 27 30 31 33 33 38 35 33 41 35 35 29 29 37 40 35 34 32 27 29 25 17 15 8 12 8 11
11 16 24 25 26 27 28 30 31 33 37 41 40 40 41 38 36 33 46 47 47 44 39 34 30 29 27 22 21 25 19 17
9 14 21 23 25 27 29 30 29 30 31 33 37 39 41 42 45 49 51 48 47 42 43 40 37 34 32 26 25 25 26 24
9 14 18 22 23 24 27 29 30 28 30 32 34 33 37 42 46 48 48 49 47 44 42 41 40 37 35 28 25 24 24 25
7 11 15 21 21 23 26 28 32 31 33 34 34 37 39 40 42 44 44 45 43 40 41 41 38 37 33 30 29 29 28 27
9 11 13 16 20 19 24 26 29 33 34 34 35 36 38 39 39 40 42 41 41 42 42 39 38 36 34 33 32 30 29 29
9 12 12 12 17 19 20 22 26 30 33 34 35 34 35 36 37 38 38 38 40 39 38 36 34 36 33 32 30 29 29 29
Wind_Direction
354 348 342 337 332 328 324 314 304 297 286 283 278 273 271 268 271 273 257 247 243 233 232 231 229 226 226 225 224 218 218 215
355 348 341 334 333 332 330 326 316 306 302 293 288 281 273 267 264 266 271 263 249 228 235 231 228 227 225 225 224 219 219 217
356 350 347 346 343 341 337 332 324 320 314 303 298 294 285 278 268 264 260 268 263 231 229 228 227 225 228 227 224 220 221 217
351 350 348 347 345 343 339 337 334 328 322 313 301 291 290 285 279 269 261 263 269 248 251 227 231 228 228 224 225 221 222 219
351 350 349 348 344 342 340 336 334 330 320 309 304 301 296 294 288 279 266 259 259 264 254 238 237 234 229 224 221 219 221 217
349 348 348 348 348 347 343 342 339 331 320 311 304 297 297 296 291 285 277 263 260 256 263 262 249 239 236 229 222 217 219 220
346 352 352 354 353 350 351 350 348 340 327 315 306 299 296 292 294 296 285 277 264 248 253 269 247 227 232 229 226 221 220 223
355 359 360 358 356 356 357 359 357 350 337 324 312 307 296 292 286 285 287 279 253 248 242 254 259 297 224 227 223 223 224 222
3 8 3 2 3 3 2 6 7 1 8 348 351 335 318 292 275 268 252 252 212 226 237 270 276 286 157 195 220 227 226 225
13 13 12 11 10 10 9 13 22 17 21 25 25 4 342 324 266 250 217 222 223 237 253 257 236 228 152 228 215 220 227 238
19 17 17 17 17 18 18 23 30 30 29 38 34 38 49 62 96 117 135 165 163 146 120 133 168 163 181 231 248 279 228 233
22 19 25 19 21 28 29 32 34 40 39 37 42 43 56 68 61 87 102 111 124 133 124 136 166 126 130 115 199 223 246 245
25 27 29 22 24 32 35 37 41 45 51 51 42 48 51 63 55 64 92 95 105 102 97 111 102 105 108 124 129 111 145 136
30 37 37 26 28 31 38 41 45 48 53 58 58 52 52 60 59 54 85 88 89 95 92 90 91 85 79 77 80 82 88 66
39 45 45 38 36 39 39 43 44 49 53 60 58 58 60 59 62 65 72 77 81 84 85 86 81 80 79 75 72 67 68 70
48 52 48 44 43 48 51 52 52 54 57 59 62 65 66 65 63 63 65 70 75 75 77 77 76 74 70 70 72 65 62 59
68 66 58 50 47 47 55 53 54 54 56 57 60 63 61 63 63 63 63 65 67 70 73 73 71 66 63 59 60 57 54 54
74 74 66 58 53 52 55 58 58 57 57 56 57 58 60 61 62 62 62 60 61 62 62 63 64 61 55 51 49 48 44 41
77 74 79 67 63 58 59 60 59 59 58 56 55 56 57 58 59 58 60 58 56 56 56 55 54 54 50 47 43 41 38 35
Height
1509 1507 1503 1499 1495 1490 1485 1481 1474 1470 1466 1460 1460 1459 1463 1465 1465 1464 1461 1461 1465 1464 1467 1469 1475 1479 1483 1487 1490 1492 1496 1501
1511 1506 1502 1497 1491 1484 1478 1472 1468 1462 1457 1453 1448 1447 1448 1452 1455 1455 1456 1450 1450 1441 1458 1463 1468 1470 1473 1479 1482 1484 1489 1493
1510 1506 1500 1493 1487 1481 1474 1469 1463 1458 1453 1448 1444 1439 1437 1437 1442 1444 1446 1444 1442 1444 1447 1451 1460 1460 1466 1470 1475 1479 1484 1486
1509 1501 1496 1490 1484 1477 1470 1465 1459 1453 1448 1443 1439 1434 1429 1428 1429 1431 1434 1436 1437 1438 1417 1435 1447 1448 1453 1458 1466 1470 1476 1480
1511 1504 1498 1493 1486 1478 1470 1463 1455 1450 1446 1439 1434 1429 1423 1422 1420 1420 1422 1425 1428 1433 1432 1435 1440 1443 1441 1443 1449 1455 1466 1470
1512 1508 1501 1493 1483 1475 1469 1461 1454 1448 1441 1435 1429 1423 1420 1416 1414 1412 1412 1414 1416 1422 1425 1427 1431 1432 1436 1440 1442 1442 1452 1459
1515 1508 1499 1489 1483 1476 1468 1460 1452 1444 1436 1431 1426 1420 1415 1411 1410 1407 1405 1406 1406 1408 1414 1418 1423 1399 1425 1428 1439 1440 1442 1450
1511 1503 1494 1489 1483 1475 1468 1459 1449 1441 1433 1427 1422 1416 1411 1407 1405 1402 1401 1400 1401 1399 1403 1414 1411 1396 1397 1425 1429 1435 1440 1445
1511 1501 1497 1492 1485 1476 1468 1459 1451 1442 1433 1424 1417 1412 1407 1403 1399 1397 1398 1396 1398 1395 1393 1407 1405 1405 1387 1407 1425 1430 1440 1441
1509 1505 1501 1493 1485 1477 1470 1462 1452 1445 1434 1424 1416 1411 1405 1399 1395 1394 1392 1394 1394 1393 1393 1400 1405 1404 1396 1418 1420 1429 1434 1438
1510 1506 1501 1494 1487 1479 1471 1462 1454 1446 1436 1425 1419 1411 1405 1398 1396 1391 1388 1391 1392 1390 1390 1396 1401 1399 1402 1415 1421 1429 1429 1431
1511 1508 1501 1496 1490 1481 1473 1465 1456 1447 1436 1429 1421 1414 1407 1400 1398 1394 1391 1390 1389 1382 1390 1401 1404 1409 1409 1412 1425 1421 1422 1423
1512 1509 1502 1497 1491 1483 1475 1468 1459 1451 1441 1432 1428 1420 1416 1407 1410 1405 1395 1387 1384 1382 1396 1399 1406 1407 1408 1411 1416 1422 1424 1427
1514 1509 1504 1500 1493 1486 1479 1472 1464 1456 1446 1439 1433 1432 1421 1419 1417 1414 1396 1394 1389 1385 1401 1403 1406 1410 1410 1412 1422 1424 1422 1420
1515 1510 1506 1502 1497 1490 1483 1476 1470 1463 1456 1450 1446 1441 1437 1432 1415 1409 1400 1398 1400 1405 1405 1410 1414 1414 1411 1424 1425 1423 1424 1422
1515 1512 1509 1504 1500 1495 1489 1483 1477 1471 1464 1459 1454 1450 1440 1436 1430 1423 1417 1413 1414 1418 1416 1415 1416 1419 1421 1432 1425 1425 1425 1424
1516 1513 1511 1506 1502 1499 1493 1488 1483 1477 1471 1466 1461 1455 1449 1440 1437 1433 1430 1427 1428 1430 1429 1421 1425 1432 1432 1435 1429 1425 1429 1431
1516 1513 1512 1510 1506 1502 1497 1493 1490 1483 1478 1473 1467 1462 1457 1452 1448 1443 1440 1438 1436 1433 1429 1430 1433 1435 1434 1431 1429 1433 1432 1431
1517 1515 1513 1512 1509 1506 1502 1498 1494 1489 1484 1479 1475 1470 1465 1461 1457 1453 1452 1450 1443 1439 1437 1437 1438 1436 1437 1437 1437 1437 1437 1435